User: anonymous   Login
Location: Oberwangen
(47.4286°N, 8.9679°E)
Time: 21:45:58
(UTC+00:00)
Language:

YAOGAN 26 - Orbit

View from above orbital plane
View from above orbital plane
View from above satellite
View from above satellite

Ground track
Ground track

The orbit data is extracted from the following two-line orbital elements,

1 40362U 14088A   22021.47804966  .00004174  00000-0  17616-3 0  9997
2 40362  97.1719  77.9064 0006466 220.5251 263.1805 15.23787943393642
Epoch (UTC): 21 January 2022 11:28:23
Eccentricity: 0.0006466
inclination: 97.1719°
perigee height: 490 km
apogee height: 499 km
right ascension of ascending node: 77.9064°
argument of perigee: 220.5251°
revolutions per day: 15.23787943
mean anomaly at epoch: 263.1805°
orbit number at epoch: 39364

The dashed part of the orbit path shows where the satellite is in the earth's shadow,  

DLR